Location: Unspecified
(0.0000°N, 0.0000°E)
Time: 06:12:10
(UTC+00:00)

Transit 4A - Pass Details

Date: 10 October 2020
Orbit: 862 x 982 km, 66.8° (Epoch: 28 October)

Event Time Altitude Azimuth Distance (km) Brightness Sun altitude
Rises 06:22:27 0° 325° (NW) 3,634 10.6 8.8°
Reaches altitude 10° 06:25:12 10° 317° (NW) 2,675 9.9 9.5°
Maximum altitude 06:30:53 37° 251° (WSW) 1,407 8.6 10.9°
Drops below altitude 10° 06:36:26 10° 185° (S) 2,608 10.3 12.3°
Sets 06:39:07 0° 176° (S) 3,532 11.1 12.9°
